Date String (YYYY-MM-DD hh:mm:ss) UTC,Instrument flags,absolute air pressure of the measurement (hPa),sample flow rate (lpm),inlet stack bypass flow (lpm),air temperature of the measurement (°C),ambient temperature measured by the external sensor (°C),aerosol sample conditioner tube jacket temperature (°C),OPC LED temperature (°C),internal box temperature (°C),relative humidity of the measurement (%),span deviation,mass concentration of particles derived from Lorenz-Mie calculation of OPC scattering (μg/m³),mass concentration of particles derived from Lorenz-Mie calculation of OPC scattering (μg/m³),mass concentration of particles derived from Lorenz-Mie calculation of OPC scattering (μg/m³)
DateTimeUTC,F1_M11,P_M11,Q1_M11,Q2_M11,T1_M11,T2_M11,T3_M11,T4_M11,T5_M11,U1_M11,ZSPAN_M11,X0_M11,X2_M11,X1_M11
2023-09-30 22:00:00,SystemResetWarning,0825.6,5.00,000.00,027.9,025.3,000.0,036.4,029.6,20.9,0000.0,0021.18,0006.89,0005.43
2023-09-30 22:01:00,SystemResetWarning,0825.6,5.00,000.00,027.9,025.7,000.0,036.4,029.7,21.0,0000.0,0021.48,0006.87,0005.42
2023-09-30 22:02:00,SystemResetWarning,0825.6,5.00,000.00,027.9,026.1,000.0,036.4,029.8,20.9,0000.0,0020.30,0006.88,0005.44
2023-09-30 22:03:00,SystemResetWarning,0825.6,5.00,000.00,028.0,026.4,000.0,036.4,029.8,20.5,0000.0,0019.30,0006.85,0005.45
2023-09-30 22:04:00,SystemResetWarning,0825.6,5.00,000.00,028.1,026.7,000.0,036.4,029.9,20.3,0000.0,0018.87,0006.82,0005.44
2023-09-30 22:05:00,SystemResetWarning,0825.6,4.99,000.00,028.1,027.0,000.0,036.4,030.0,20.0,0000.0,0019.62,0006.84,0005.42
2023-09-30 22:06:00,SystemResetWarning,0825.7,4.99,000.00,028.2,026.9,000.0,036.5,030.1,20.2,0000.0,0019.42,0006.87,0005.42
2023-09-30 22:07:00,SystemResetWarning,0825.6,5.00,000.00,028.2,025.3,000.0,036.4,029.9,20.1,0000.0,0019.40,0006.88,0005.44
2023-09-30 22:08:00,SystemResetWarning,0825.6,5.00,000.00,028.1,024.3,000.0,036.4,029.7,20.2,0000.0,0018.40,0006.90,0005.43
2023-09-30 22:09:00,SystemResetWarning,0825.6,5.00,000.00,028.0,024.4,000.0,036.3,029.6,20.3,0000.0,0018.91,0006.89,0005.40
2023-09-30 22:10:00,SystemResetWarning,0825.6,5.01,000.00,027.9,024.8,000.0,036.3,029.5,20.4,0000.0,0019.16,0006.82,0005.39
2023-09-30 22:11:00,SystemResetWarning,0825.6,5.00,000.00,027.9,025.2,000.0,036.4,029.6,20.5,0000.0,0018.58,0006.83,0005.37
2023-09-30 22:12:00,SystemResetWarning,0825.6,5.01,000.00,027.9,025.6,000.0,036.4,029.7,20.3,0000.0,0018.09,0006.87,0005.37
2023-09-30 22:13:00,SystemResetWarning,0825.6,5.00,000.00,028.0,026.0,000.0,036.4,029.7,20.2,0000.0,0018.91,0006.86,0005.36
2023-09-30 22:14:00,SystemResetWarning,0825.6,5.00,000.00,028.0,026.4,000.0,036.4,029.8,20.3,0000.0,0019.33,0006.86,0005.35
2023-09-30 22:15:00,SystemResetWarning,0825.6,5.00,000.00,028.1,026.7,000.0,036.4,029.9,20.0,0000.3,0019.35,0006.93,0005.36
2023-09-30 22:16:00,SystemResetWarning,0825.6,5.01,000.00,028.1,026.9,000.0,036.4,030.0,19.9,0000.0,0017.89,0006.92,0005.37
2023-09-30 22:17:00,SystemResetWarning,0825.6,4.99,000.00,028.2,027.0,000.0,036.5,030.1,19.6,0000.6,0017.44,0006.93,0005.37
2023-09-30 22:18:00,SystemResetWarning,0825.6,4.99,000.00,028.2,025.7,000.0,036.4,030.0,19.4,0000.0,0017.72,0006.90,0005.35
2023-09-30 22:19:00,SystemResetWarning,0825.6,5.00,000.00,028.1,024.3,000.0,036.4,029.8,19.1,0000.0,0019.43,0006.91,0005.34
2023-09-30 22:20:00,SystemResetWarning,0825.5,5.01,000.00,028.0,024.3,000.0,036.3,029.7,18.5,0000.0,0019.86,0006.96,0005.34
2023-09-30 22:21:00,SystemResetWarning,0825.6,5.01,000.00,028.0,024.6,000.0,036.4,029.6,18.1,0000.0,0019.25,0007.03,0005.32
2023-09-30 22:22:00,SystemResetWarning,0825.6,5.00,000.00,027.9,025.1,000.0,036.4,029.6,18.4,0000.0,0018.87,0007.05,0005.32
2023-09-30 22:23:00,SystemResetWarning,0825.6,5.00,000.00,027.9,025.5,000.0,036.4,029.7,18.6,0000.0,0020.26,0007.06,0005.31
2023-09-30 22:24:00,SystemResetWarning,0825.5,5.00,000.00,028.0,025.9,000.0,036.4,029.7,18.7,0000.0,0019.10,0007.07,0005.30
2023-09-30 22:25:00,SystemResetWarning,0825.5,5.00,000.00,028.0,026.3,000.0,036.4,029.8,18.6,0000.0,0018.50,0007.06,0005.28
2023-09-30 22:26:00,SystemResetWarning,0825.5,5.00,000.00,028.0,026.6,000.0,036.4,029.9,18.1,0000.0,0018.37,0007.02,0005.26
2023-09-30 22:27:00,SystemResetWarning,0825.5,4.99,000.00,028.1,026.9,000.0,036.4,030.0,17.9,0000.0,0018.53,0007.00,0005.26
2023-09-30 22:28:00,SystemResetWarning,0825.5,4.99,000.00,028.2,027.0,000.0,036.5,030.1,17.4,0000.0,0018.60,0006.97,0005.25
2023-09-30 22:29:00,SystemResetWarning,0825.5,5.00,000.00,028.2,026.0,000.0,036.5,030.0,17.5,0000.4,0018.43,0006.98,0005.23
2023-09-30 22:30:00,SystemResetWarning,0825.4,5.00,000.00,028.1,024.4,000.0,036.4,029.7,17.8,0000.0,0016.68,0006.96,0005.22
2023-09-30 22:31:00,SystemResetWarning,0825.4,5.00,000.00,028.0,024.2,000.0,036.4,029.6,18.0,0001.1,0016.20,0006.89,0005.20
2023-09-30 22:32:00,SystemResetWarning,0825.4,5.01,000.00,027.9,024.5,000.0,036.3,029.5,17.6,0000.3,0017.20,0006.81,0005.18
2023-09-30 22:33:00,SystemResetWarning,0825.4,5.00,000.00,027.9,024.9,000.0,036.4,029.5,17.8,0000.0,0017.85,0006.77,0005.17
2023-09-30 22:34:00,SystemResetWarning,0825.4,5.00,000.00,027.9,025.4,000.0,036.4,029.6,17.5,0000.0,0018.32,0006.71,0005.16
2023-09-30 22:35:00,SystemResetWarning,0825.5,5.00,000.00,027.9,025.8,000.0,036.4,029.7,17.2,0000.0,0018.76,0006.70,0005.15
2023-09-30 22:36:00,SystemResetWarning,0825.5,5.00,000.00,027.9,026.2,000.0,036.4,029.8,17.1,0000.0,0019.06,0006.72,0005.14
2023-09-30 22:37:00,SystemResetWarning,0825.6,5.00,000.00,028.0,026.5,000.0,036.4,029.8,17.0,0000.0,0018.89,0006.67,0005.13
2023-09-30 22:38:00,SystemResetWarning,0825.6,4.99,000.00,028.0,026.8,000.0,036.4,029.9,17.1,0000.0,0019.37,0006.71,0005.11
2023-09-30 22:39:00,SystemResetWarning,0825.7,4.99,000.00,028.1,027.0,000.0,036.4,030.0,16.5,0000.0,0019.80,0006.73,0005.09
2023-09-30 22:40:00,SystemResetWarning,0825.7,4.99,000.00,028.2,027.0,000.0,036.5,030.1,15.9,0000.0,0020.45,0006.74,0005.08
2023-09-30 22:41:00,SystemResetWarning,0825.8,4.99,000.00,028.1,025.6,000.0,036.4,029.9,16.4,0000.0,0021.54,0006.70,0005.07
2023-09-30 22:42:00,SystemResetWarning,0825.8,5.00,000.00,028.0,024.2,000.0,036.4,029.7,16.5,0000.0,0021.50,0006.74,0005.06
2023-09-30 22:43:00,SystemResetWarning,0825.9,5.00,000.00,028.0,024.3,000.0,036.3,029.6,16.7,0000.0,0021.05,0006.72,0005.07
2023-09-30 22:44:00,SystemResetWarning,0825.9,5.01,000.00,027.9,024.6,000.0,036.3,029.5,17.0,0000.0,0020.50,0006.69,0005.06
2023-09-30 22:45:00,SystemResetWarning,0825.9,5.00,000.00,027.9,025.0,000.0,036.3,029.5,17.3,0000.0,0019.54,0006.68,0005.06
2023-09-30 22:46:00,SystemResetWarning,0825.9,5.00,000.00,027.9,025.5,000.0,036.3,029.6,17.3,0000.0,0019.59,0006.68,0005.06
2023-09-30 22:47:00,SystemResetWarning,0825.8,5.00,000.00,027.9,025.9,000.0,036.4,029.7,16.4,0000.0,0020.61,0006.71,0005.05
2023-09-30 22:48:00,SystemResetWarning,0825.8,5.01,000.00,027.9,026.2,000.0,036.4,029.7,14.5,0000.0,0021.23,0006.73,0005.05
2023-09-30 22:49:00,SystemResetWarning,0825.7,4.99,000.00,028.0,026.5,000.0,036.4,029.8,14.3,0000.0,0021.49,0006.76,0005.04
2023-09-30 22:50:00,SystemResetWarning,0825.7,4.99,000.00,028.0,026.7,000.0,036.4,029.9,14.2,0000.0,0022.08,0006.80,0005.05
2023-09-30 22:51:00,SystemResetWarning,0825.6,5.00,000.00,028.1,026.9,000.0,036.4,030.0,14.2,0000.0,0022.48,0006.84,0005.06
2023-09-30 22:52:00,SystemResetWarning,0825.6,5.02,000.00,028.1,027.1,000.0,036.5,030.0,14.1,0000.0,0021.52,0006.87,0005.05
2023-09-30 22:53:00,SystemResetWarning,0825.5,5.00,000.00,028.1,026.0,000.0,036.4,030.0,14.2,0000.0,0021.85,0006.85,0005.04
2023-09-30 22:54:00,SystemResetWarning,0825.5,4.99,000.00,028.0,024.4,000.0,036.4,029.6,14.3,0000.0,0021.82,0006.85,0005.02
2023-09-30 22:55:00,SystemResetWarning,0825.6,5.02,000.00,027.9,024.2,000.0,036.3,029.5,14.1,0000.0,0022.03,0006.87,0005.00
2023-09-30 22:56:00,SystemResetWarning,0825.6,5.00,000.00,027.9,024.5,000.0,036.3,029.5,14.4,0000.0,0021.58,0006.87,0004.98
2023-09-30 22:57:00,SystemResetWarning,0825.6,5.00,000.00,027.8,024.9,000.0,036.3,029.5,14.7,0000.0,0021.69,0006.87,0004.95
2023-09-30 22:58:00,SystemResetWarning,0825.6,5.00,000.00,027.8,025.3,000.0,036.3,029.5,14.8,0000.0,0021.01,0006.84,0004.93
2023-09-30 22:59:00,SystemResetWarning,0825.6,5.00,000.00,027.8,025.7,000.0,036.3,029.6,15.3,0000.0,0020.62,0006.84,0004.92
